METEOR 1-5 DEB, 58398

Orbit data source: Space-Track

METEOR 1-5 DEB, 58398 is space debris in LEO originally from a launch on Tue, 23 Jun 1970 UTC launched from the Plesetsk Missile And Space Complex (PKMTR). Debris objects in space refer to the collection of defunct objects orbiting the Earth. Examples of debris include non-operational satellites, rocket bodies, and fragments generated from explosions, collisions, or faulty payload assembly.

Loading next visibility...
Identifier
58398, 1970-047E
Orbit
LEO
Country
Flag of CISCIS
Related business
Manufacturer
VNIIEM
Mission
Spacecraft
Bus & Motor
Unknown
Mass
Unknown
Launch date (UTC)
1970-06-23 (56 years ago)
Launch vehicle
Unknown
Launch site
Plesetsk Missile And Space Complex (PKMTR)
Object type
Payload
Rocket body
Debris
Shape & HBR
Unknown shape, 0.1 m
Radar Cross Section
Small (<0.1 m²)

Expand to show TLE details & history
Last TLE update: 2 days ago

TLE from 2 days ago
0 METEOR 1-5 DEB
1 58398U 70047E   26171.08026540  .00002721  00000-0  10217-2 0  9998
2 58398  81.2055 218.9931 0051718  32.1696 328.2623 14.30666197137288
Epoch: 2026-06-20T01:55Z
TLE epoch observation values (Epoch: 2026-06-20T01:55:34.930Z)
Latitude
-0.00004°
Longitude
-78.20247°
Altitude
760.952 km
Speed
7.49 km/s
True Right ascension
14h 35m 58s
True Declination
0° 00' 00"
Sunlit
Object was in full shadow at epoch
Visualization orbit readout
Latitude
Unknown
Longitude
Unknown
Altitude
Unknown
Speed
Unknown
Apparent Right ascension
Unknown
Apparent Declination
Unknown
Sunlit
N/A
Visualization observer readout
Local Sidereal Time
21:28:54
Azimuth
Unknown
Elevation
Unknown
Doppler factor
Unknown
Orbital elements
Apogee altitude
823.708 km
Perigee altitude
749.598 km
Semi-major axis
7,164.79 km
Eccentricity
0.00517
Inclination
81.2055°
RAAN
218.9931°
Arg. of periapsis
32.1696°
True anomaly
327.94883°
Mean anomaly
328.2623°
Eccentric anomaly
328.10574°
Mean motion
3.5788 °/min
Orbital period
100.59 mins
BSTAR
0.0010217
Loading maneuver chart data...
Computing Atmospheric mass density...
Loading historical data...
Loading historical data...
Loading historical data...
Loading historical data...
Loading historical data...
Loading historical data...
Loading historical data...
Other satellites on launch #47 in the year 1970 (1970-06-23 UTC)

Documentation

Showing up to 5 results
|